Mustafa Dayi — TCZF2 — position and weather

sailwx.info

Track history (hours):
 
Tides and Currents Weather Stations Pressure Air Temp Water Temp Dewpoint Dewpoint Depression Visibility Wind Speed Wind Dir Waves Ship Positions

Mustafa Dayi

Last reported at 2014-Jul-24 12:11 UTC. Time now 2014-Jul-24 16:58 UTC.
Position N 40°58' E 028°41'.

Length 183 m; draft 9.2 m.

Type: Ship (hazmat cat A). MMSI: 271042433.

Date/timePositionNaut miles runAvg speedWind from/ knotsBaromVisibWave heightAir tempDewpointWater temp
2014-Jul-24 12:11N 40°58' E 028°41'2 2.7
2014-Jul-24 11:32N 40°56' E 028°41'10112.2
2014-Jul-24 03:12N 40°19' E 026°36'3812.0
2014-Jul-24 00:04N 39°56' E 025°57'912.8
2014-Jul-23 23:21N 39°48' E 025°51'1214.3
2014-Jul-23 22:31N 39°36' E 025°48'12814.3
2014-Jul-23 13:33N 37°29' E 025°54'1414.5
2014-Jul-23 12:33N 37°20' E 026°09'1414.4
2014-Jul-23 11:33N 37°11' E 026°23'4213.5
2014-Jul-23 08:26N 36°33' E 026°46'1213.8
2014-Jul-23 07:33N 36°22' E 026°52'1414.3
2014-Jul-23 06:33N 36°12' E 027°05'1414.2
2014-Jul-23 05:33N 36°02' E 027°17'1413.6
2014-Jul-23 04:33N 35°51' E 027°28'8414.1
2014-Jul-22 22:33N 34°34' E 028°08'1414.0
2014-Jul-22 21:33N 34°21' E 028°15'1414.0
2014-Jul-22 20:33N 34°08' E 028°22'1414.0
2014-Jul-22 19:33N 33°55' E 028°29'1414.1
2014-Jul-22 18:33N 33°43' E 028°36'1414.0
2014-Jul-22 17:33N 33°29' E 028°41'1914.0
2014-Jul-22 16:11N 33°11' E 028°49'913.9
2014-Jul-22 15:33N 33°03' E 028°53'3313.8
2014-Jul-22 13:08N 32°32' E 029°07'1214.1
2014-Jul-22 12:16N 32°21' E 029°13'  
2014-Jul-18 21:31N 35°56' E 032°56'1914.1
2014-Jul-18 20:09N 35°55' E 032°32'28713.8
2014-Jul-17 23:23N 36°12' E 026°38'4414.1
2014-Jul-17 20:17N 36°10' E 025°44'1014.0
2014-Jul-17 19:32N 36°10' E 025°31'1313.9
2014-Jul-17 18:34N 36°09' E 025°14'1414.1
2014-Jul-17 17:34N 36°11' E 024°57'1414.3
2014-Jul-17 16:34N 36°12' E 024°39'1514.6
2014-Jul-17 15:34N 36°13' E 024°21'1414.3
2014-Jul-17 14:33N 36°14' E 024°04'46814.1
2014-Jul-16 05:17N 36°21' E 014°23'1014.3
2014-Jul-16 04:33N 36°25' E 014°11'1414.0
2014-Jul-16 03:33N 36°29' E 013°54'1413.9
2014-Jul-16 02:33N 36°33' E 013°38'1913.9
2014-Jul-16 01:13N 36°39' E 013°16'40614.0
2014-Jul-14 20:11N 37°08' E 004°50'1014.9
2014-Jul-14 19:33N 37°07' E 004°38'1514.7
2014-Jul-14 18:33N 37°06' E 004°19'1514.4
2014-Jul-14 17:33N 37°05' E 004°01'1414.2
2014-Jul-14 16:33N 37°04' E 003°44'1414.2
2014-Jul-14 15:33N 37°01' E 003°26'1414.4
2014-Jul-14 14:33N 36°59' E 003°08'1514.6
2014-Jul-14 13:33N 36°57' E 002°50'1514.9
2014-Jul-14 12:32N 36°55' E 002°32'  
Track history (hours):
 
Tides and Currents Weather Stations Pressure Air Temp Water Temp Dewpoint Dewpoint Depression Visibility Wind Speed Wind Dir Waves Ship Positions

Mustafa Dayi

Last reported at 2014-Jul-24 12:11 UTC. Time now 2014-Jul-24 16:58 UTC.
Position N 40°58' E 028°41'.

Length 183 m; draft 9.2 m.

Type: Ship (hazmat cat A). MMSI: 271042433.

Date/timePositionNaut miles runAvg speedWind from/ knotsBaromVisibWave heightAir tempDewpointWater temp
2014-Jul-24 12:11N 40°58' E 028°41'2 2.7
2014-Jul-24 11:32N 40°56' E 028°41'10112.2
2014-Jul-24 03:12N 40°19' E 026°36'3812.0
2014-Jul-24 00:04N 39°56' E 025°57'912.8
2014-Jul-23 23:21N 39°48' E 025°51'1214.3
2014-Jul-23 22:31N 39°36' E 025°48'12814.3
2014-Jul-23 13:33N 37°29' E 025°54'1414.5
2014-Jul-23 12:33N 37°20' E 026°09'1414.4
2014-Jul-23 11:33N 37°11' E 026°23'4213.5
2014-Jul-23 08:26N 36°33' E 026°46'1213.8
2014-Jul-23 07:33N 36°22' E 026°52'1414.3
2014-Jul-23 06:33N 36°12' E 027°05'1414.2
2014-Jul-23 05:33N 36°02' E 027°17'1413.6
2014-Jul-23 04:33N 35°51' E 027°28'8414.1
2014-Jul-22 22:33N 34°34' E 028°08'1414.0
2014-Jul-22 21:33N 34°21' E 028°15'1414.0
2014-Jul-22 20:33N 34°08' E 028°22'1414.0
2014-Jul-22 19:33N 33°55' E 028°29'1414.1
2014-Jul-22 18:33N 33°43' E 028°36'1414.0
2014-Jul-22 17:33N 33°29' E 028°41'1914.0
2014-Jul-22 16:11N 33°11' E 028°49'913.9
2014-Jul-22 15:33N 33°03' E 028°53'3313.8
2014-Jul-22 13:08N 32°32' E 029°07'1214.1
2014-Jul-22 12:16N 32°21' E 029°13'  
2014-Jul-18 21:31N 35°56' E 032°56'1914.1
2014-Jul-18 20:09N 35°55' E 032°32'28713.8
2014-Jul-17 23:23N 36°12' E 026°38'4414.1
2014-Jul-17 20:17N 36°10' E 025°44'1014.0
2014-Jul-17 19:32N 36°10' E 025°31'1313.9
2014-Jul-17 18:34N 36°09' E 025°14'1414.1
2014-Jul-17 17:34N 36°11' E 024°57'1414.3
2014-Jul-17 16:34N 36°12' E 024°39'1514.6
2014-Jul-17 15:34N 36°13' E 024°21'1414.3
2014-Jul-17 14:33N 36°14' E 024°04'46814.1
2014-Jul-16 05:17N 36°21' E 014°23'1014.3
2014-Jul-16 04:33N 36°25' E 014°11'1414.0
2014-Jul-16 03:33N 36°29' E 013°54'1413.9
2014-Jul-16 02:33N 36°33' E 013°38'1913.9
2014-Jul-16 01:13N 36°39' E 013°16'40614.0
2014-Jul-14 20:11N 37°08' E 004°50'1014.9
2014-Jul-14 19:33N 37°07' E 004°38'1514.7
2014-Jul-14 18:33N 37°06' E 004°19'1514.4
2014-Jul-14 17:33N 37°05' E 004°01'1414.2
2014-Jul-14 16:33N 37°04' E 003°44'1414.2
2014-Jul-14 15:33N 37°01' E 003°26'1414.4
2014-Jul-14 14:33N 36°59' E 003°08'1514.6
2014-Jul-14 13:33N 36°57' E 002°50'1514.9
2014-Jul-14 12:32N 36°55' E 002°32'  

Dump ship's entire track history